|
Comet P/2012 F5 (GIBBS)
(
1 2
)
(Preview)
|
Comets
|
10
|
4991
|
|
|
Orbital elements:
P/2012 F5 (Gibbs)
T 2010 Sept. 15.26927 TT MPC
q 1.8765223 (2000.0) P Q
n 0.18525890 Peri. 189.59248 +0.82169376 -0.56111688
a 3.0475441 Node 205.35004 +0.53713964 +0.82100508
e 0.3842510 Incl. 13.48443 +0.19052657 +0.10534945
P 5.32
From 45 observations 2012 Mar....
|
|
|
|
|
|
Comet P/2012 T1 (PANSTARRS)
(
1 2
)
(Preview)
|
Comets
|
11
|
8421
|
|
|
Orbital elements:
P/2012 T1 (PANSTARRS)
Epoch 2012 Nov. 9.0 TT = JDT 2456240.5
T 2012 Nov. 21.89054 TT MPC
q 2.4191670 (2000.0) P Q
n 0.18520232 Peri. 323.21593 +0.66773633 -0.71797534
a 3.0481647 Node 83.98065 +0.72136378 +0.55892502
e 0.2063529 Incl. 11.40012 +0.18374573 +0.4148665...
|
|
|
|
|
|
Comet 238P/Read
(Preview)
|
Comets
|
3
|
2551
|
|
|
Comet 238P/Read is at Perihelion (2.360 AU) on the 10th March, 2011.
|
|
|
|
|
|
133P/(7968) Elst-Pizarro
(
1 2
)
(Preview)
|
Solar System
|
10
|
7628
|
|
|
Title: The Hawaii Trails Project: Comet-Hunting in the Main Asteroid Belt Authors: Henry H. Hsieh (Queen's University, Belfast) The mysterious solar system object 133P/(7968) Elst-Pizarro is dynamically asteroidal, yet displays recurrent comet-like dust emission. Two scenarios were hypo...
|
|
|
|
|
|
Comet P/2010 R2 (LA SAGRA)
(Preview)
|
Comets
|
7
|
5293
|
|
|
Orbital elements:
P/2010 R2 (La Sagra)
T 2010 June 25.0979 TT MPC
q 2.622922 (2000.0) P Q
n 0.1806143 Peri. 59.3696 +0.8078131 +0.4629648
a 3.099569 Node 270.7569 -0.5825876 +0.7212030
e 0.153778 Incl. 21.3991 +0.0896084 +0.5152959
P 5.46
From 87 observations 2010 Aug. 12-Sept. 19. [ur...
|
|
|
|
|
|
Comet P/2006 VW139
(Preview)
|
Comets
|
7
|
6056
|
|
|
The apparent main belt asteroid (300163) 2006 VW139 was found to have a cometary nature by H. Hsieh, R. Wainscoat & D. Larry (PS1 telescope). The orbital elements of the comet indicate a perihelion passage on the 18th July, 2011, at a distance of ~2.4 AU from the Sun, and an orbital period of ~ 5.33 y...
|
|
|
|
|
|
Comet 176P/LINEAR
(Preview)
|
Comets
|
8
|
2936
|
|
|
Comet 176P/LINEAR makes its closest approach to the Earth (1.955 AU) on the 1st August, 2010. Ephemeris Date TT R. A. (2000) Decl. Delta r Elong. Phase m1 m2 2010 08 01 20 12 18.5 -20 13 05 1.9552 2.9642 172.3 2.6 19.1 2010 08 02 20 11 29.6 -20 15 34 1.9554 2.9623 171.1 3.0 19.1 2010 08 03 20 10 41.0 -20 18 01 1.95...
|
|
|
|
|
|
Asteroid (596) Scheila
(
1 2
)
(Preview)
|
Asteroids
|
15
|
5978
|
|
|
Observers have announced the discovery of a spiral like tail around the main belt asteroid (596) Scheila. CBET 2583 (Subscription ) Asteroid (596) Scheila is an asteroid, a minor planet orbiting the Sun. [url=http:...
|
|
|
|
|
|
Comet P/2010 A2 (LINEAR)
(
1 2 3 4 5
)
(Preview)
|
Solar System
|
48
|
34206
|
|
|
Orbital elements: P/2010 A2 (LINEAR) T 2010 May 7.565 TT MPC q 1.35759 (2000.0) P Q n 0.137499 Peri. 227.300 -0.996911 +0.017165 a 3.71766 Node 313.525 +0.020283 -0.886471 e 0.63483 Incl. 6.068 -0.075879 -0.462465 P 7.17 From 19 observations 2010 Jan. 6-7. [url=http://www.cfa.harvard.edu/mpe...
|
|
|
|
|